GW0602 Weather Reports


time (UTC)temp
C
wind
direction
speed
KPH
gust
KPH
rain 1hr
cm
rain 24hr
cm
rain mn
cm
humidity
%
barometer
mb
20260502151554 7 136 1.6 9.7 0.00 0.00 0.00 67 1023.4
20260502123051 2 136 1.6 4.8 0.00 0.00 0.00 66 1023.0
20260502121546 2 136 3.2 4.8 0.00 0.00 0.00 63 1022.9
20260502114554 2 136 1.6 3.2 0.00 0.00 0.00 62 1022.8
20260502113051 2 136 0.0 1.6 0.00 0.00 0.00 61 1022.8
20260502111548 2 0 0.0 3.2 0.00 0.00 0.00 59 1022.8
20260502110047 3 0 0.0 4.8 0.00 0.00 0.00 56 1022.9
20260502104545 3 136 0.0 4.8 0.00 0.00 0.00 55 1022.9
20260502103102 3 136 1.6 6.4 0.00 0.00 0.00 55 1022.9
20260502101559 3 136 0.0 3.2 0.00 0.00 0.00 59 1022.8
20260502100113 3 136 3.2 4.8 0.00 0.00 0.00 60 1022.8
20260502090105 5 136 4.8 9.7 0.00 0.00 0.00 50 1022.4
20260502070053 6 0 0.0 0.0 0.00 0.00 0.00 49 1022.5
20260502064557 6 0 0.0 1.6 0.00 0.00 0.00 52 1022.5
20260502063049 5 136 0.0 1.6 0.00 0.00 0.00 58 1022.4
20260502061600 5 0 0.0 3.2 0.00 0.00 0.00 50 1022.3
20260502060050 6 136 4.8 9.7 0.00 0.00 0.00 48 1022.1
20260502054548 6 136 0.0 3.2 0.00 0.00 0.00 54 1022.2
20260502053052 6 0 0.0 1.6 0.00 0.00 0.00 55 1022.2
20260502051552 7 0 0.0 1.6 0.00 0.00 0.00 49 1022.1
20260502050048 8 0 0.0 6.4 0.00 0.00 0.00 40 1022.1
20260502044553 8 136 4.8 11.3 0.00 0.00 0.00 41 1022.1
20260502043059 8 136 3.2 11.3 0.00 0.00 0.00 38 1022.0
20260502041553 9 136 6.4 12.9 0.00 0.00 0.00 37 1021.9
20260502040054 9 136 4.8 12.9 0.00 0.00 0.00 37 1021.8
20260502034547 9 136 6.4 11.3 0.00 0.00 0.00 38 1021.7
20260502033050 8 136 6.4 11.3 0.00 0.00 0.00 39 1021.5
20260502031548 9 136 4.8 11.3 0.00 0.00 0.00 37 1021.2
20260502030044 8 136 9.7 12.9 0.00 0.00 0.00 36 1021.0
20260502024551 8 136 8.0 11.3 0.00 0.00 0.00 36 1020.8
20260502023045 10 136 6.4 11.3 0.00 0.00 0.00 33 1020.8
20260502021546 11 136 3.2 4.8 0.00 0.00 0.00 30 1020.7
20260502020049 11 136 1.6 4.8 0.00 0.00 0.00 34 1020.5
20260502014549 11 136 0.0 3.2 0.00 0.00 0.00 36 1020.5
20260502013047 12 136 1.6 4.8 0.00 0.00 0.00 39 1020.5
20260502011548 12 136 3.2 9.7 0.00 0.00 0.00 39 1020.4
20260502010048 13 0 0.0 4.8 0.00 0.00 0.00 41 1020.5
20260502004542 13 136 0.0 3.2 0.00 0.00 0.00 42 1020.5
20260502003049 12 136 0.0 3.2 0.00 0.00 0.00 42 1020.6
20260502001548 13 136 1.6 3.2 0.00 0.00 0.00 38 1020.7
20260502000049 13 136 0.0 4.8 0.00 0.00 0.00 44 1020.8
20260501234548 13 136 0.0 4.8 0.00 0.00 0.00 46 1020.9
20260501233044 13 136 3.2 8.0 0.00 0.00 0.00 49 1021.0
20260501231553 14 136 1.6 6.4 0.00 0.00 0.00 35 1020.9
20260501230058 14 136 0.0 6.4 0.00 0.00 0.00 32 1021.0
20260501224548 14 136 1.6 6.4 0.00 0.00 0.00 35 1020.9
20260501223054 14 136 1.6 8.0 0.00 0.00 0.00 28 1021.1
20260501221546 14 136 1.6 6.4 0.00 0.00 0.00 28 1021.3
20260501220048 13 136 3.2 9.7 0.00 0.00 0.00 32 1021.5
20260501214555 12 136 4.8 8.0 0.00 0.00 0.00 45 1021.7
20260501213051 12 136 4.8 11.3 0.00 0.00 0.00 35 1021.9
20260501211557 13 136 3.2 6.4 0.00 0.00 0.00 33 1022.1
20260501210049 13 136 1.6 6.4 0.00 0.00 0.00 31 1022.1
20260501204616 13 136 1.6 9.7 0.00 0.00 0.00 33 1022.2
20260501203051 12 136 4.8 11.3 0.00 0.00 0.00 38 1022.3
20260501201549 13 136 1.6 4.8 0.00 0.00 0.00 32 1022.4
20260501200050 12 136 1.6 6.4 0.00 0.00 0.00 41 1022.5
20260501194554 12 136 1.6 6.4 0.00 0.00 0.00 34 1022.6
20260501193047 12 136 1.6 3.2 0.00 0.00 0.00 38 1022.6
20260501191545 11 136 1.6 6.4 0.00 0.00 0.00 49 1022.8
20260501190041 11 136 3.2 6.4 0.00 0.00 0.00 49 1022.9
20260501184550 11 136 3.2 6.4 0.00 0.00 0.00 46 1023.0
20260501183053 11 136 3.2 6.4 0.00 0.00 0.00 36 1023.1
20260501181552 10 136 4.8 6.4 0.00 0.00 0.00 40 1023.2
20260501180048 10 136 3.2 11.3 0.00 0.00 0.00 48 1023.3
20260501174547 10 136 3.2 6.4 0.00 0.00 0.00 42 1023.4
20260501173052 8 136 4.8 11.3 0.00 0.00 0.00 46 1023.4
20260501171546 8 136 3.2 6.4 0.00 0.00 0.00 45 1023.6
20260501170049 7 136 3.2 6.4 0.00 0.00 0.00 51 1023.6
20260501164553 7 136 3.2 6.4 0.00 0.00 0.00 60 1023.6
20260501163048 6 136 3.2 9.7 0.00 0.00 0.00 71 1023.7
20260501161545 6 136 3.2 9.7 0.00 0.00 0.00 72 1023.7
20260501160056 5 136 3.2 6.4 0.00 0.00 0.00 71 1023.8
20260501154545 -17 0.0 0.0 0.00 0.00 0.00 1023.8
20260501153052 5 136 3.2 8.0 0.00 0.00 0.00 75 1023.8